Location: Arthez
(43.0833°N, 0.2500°W)
Time: 13:16:51
(UTC+00:00)

USA 267 - Pass Details

Date: 23 October 2021
Orbit: 1101 x 1107 km, 123.0° (Epoch: 06 December)

Event Time Altitude Azimuth Distance (km) Brightness Sun altitude
Exits shadow 18:37:32 - 148° (SSE) 3,869 5.8 -17.5°
Reaches altitude 10° 18:40:00 10° 153° (SSE) 2,949 5.2 -17.9°
Maximum altitude 18:46:18 51° 228° (SW) 1,358 4.0 -19.1°
Drops below altitude 10° 18:52:38 10° 303° (WNW) 2,961 6.4 -20.2°
Sets 18:55:13 0° 309° (NW) 3,922 7.0 -20.7°
